#timestamp,LO_Frequency,Hit,StdDev 
1649404815.2,286047006.7,N
1649404835.1,286047009.2,N
1649404836.0,286047009.2,N
1649404855.8,286047007.3,N
1649404875.7,286047002.5,N
1649404895.5,286047003.8,N
1649404915.3,286047002.9,N
1649404935.2,286047008.0,N
1649404955.0,286047008.2,N
1649404955.9,286047008.2,N
1649404975.7,286047010.0,N
1649404995.6,286047013.3,N
1649405015.4,286047015.3,N
1649405035.3,286047015.5,N
1649405055.1,286047006.9,N
1649405056.0,286047006.9,N
1649405075.8,286047000.0,N
1649405095.7,286046993.2,N
1649405115.5,286046987.5,N
1649405135.3,286046987.2,N
1649405155.2,286046990.5,N
1649405175.0,286047000.2,N
1649405175.9,286047000.2,N
1649405195.8,286047003.1,N
1649405215.6,286047006.6,N
1649405235.4,286047009.9,N
1649405255.3,286047014.5,N
1649405275.1,286047015.7,N
1649405295.8,286047017.9,N
1649405315.7,286047018.8,N
1649405335.5,286047016.5,N
1649405385.4,286047011.5,E
1649405395.3,286047003.6,N
1649405415.2,286046998.6,P
1649405435.9,286047001.9,N
1649405455.7,286047005.7,N
1649405475.6,286047001.3,N
1649405495.4,286047003.7,N
1649405515.2,286047001.6,N
1649405535.1,286047005.6,N
1649405536.0,286047005.6,N
1649405555.8,286047005.5,N
1649405575.7,286047009.2,Y
1649405595.5,286047005.8,P
1649405615.3,286047003.8,P
1649405635.2,286047001.9,N
1649405655.0,286046998.1,N
1649405655.9,286046998.1,N
1649405675.7,286046995.8,N
1649405695.6,286046991.0,N
1649405715.4,286046985.4,Y
1649405735.3,286046989.7,P
1649405755.1,286046988.5,N
1649405775.8,286046988.5,N
1649405795.7,286046986.8,N
1649405815.5,286046987.6,N
1649405835.4,286046983.2,Y
1649405855.2,286046987.2,P
1649405875.0,286046992.9,P
1649405875.9,286046992.9,P
1649405895.8,286046990.4,Y
1649405915.6,286047000.7,P
1649405935.4,286046997.0,N
1649405955.3,286047004.0,N
1649405975.1,286047007.3,N
1649405995.9,286047003.1,N
1649406015.7,286046996.6,N
1649406035.5,286046996.6,N
1649406055.4,286047000.7,N
1649406075.2,286047001.1,N
1649406095.0,286046994.7,N
1649406095.9,286046994.7,N
1649406115.8,286046989.1,N
1649406135.6,286046993.6,N
1649406155.5,286046997.4,N
1649406175.3,286046990.4,N
1649406195.1,286046992.9,N
1649406215.9,286046998.4,N
1649406235.7,286047001.9,N
1649406255.5,286047004.6,N
1649406275.4,286047013.4,N
1649406295.2,286047015.0,N
1649406315.1,286047020.4,Y
1649406316.0,286047020.4,P
1649406335.8,286047014.0,N
1649406355.6,286047018.7,N
1649406375.5,286047019.3,N
1649406395.3,286047016.5,N
1649406415.1,286047008.1,N
1649406435.9,286047011.2,N
1649406455.7,286047015.6,N
1649406475.6,286047018.7,N
1649406495.4,286047016.7,N
1649406515.2,286047015.1,N
1649406535.1,286047013.8,N
1649406536.0,286047013.8,N
1649406555.8,286047014.5,N
1649406575.6,286047015.1,N
1649406595.5,286047016.8,Y
1649406615.3,286047000.7,P
1649406635.2,286046995.8,N
1649406655.9,286046994.6,N
1649406675.7,286046994.3,N
1649406695.6,286046991.1,N
1649406715.4,286046985.5,N
1649406735.2,286046989.2,N
1649406755.1,286046995.9,N
1649406756.0,286046995.9,N
1649406775.8,286046996.2,N
1649406795.7,286046989.1,N
1649406815.5,286046988.3,N
1649406835.3,286046988.8,N
1649406855.2,286046988.5,N
1649406875.0,286046989.2,N
1649406875.9,286046989.2,N
1649406895.8,286046987.5,N
1649406915.6,286046989.0,N
1649406935.4,286046990.9,N
1649406955.3,286046991.3,N
1649406975.1,286046992.3,N
1649406995.8,286046990.6,N
1649407015.7,286046992.3,N
1649407035.5,286046990.1,N
1649407055.3,286046998.8,N
1649407075.2,286046998.7,N
1649407095.0,286047000.9,N
1649407095.9,286047000.9,N
1649407115.8,286047001.2,N
1649407135.6,286047004.0,N
1649407155.4,286047000.4,N
1649407175.3,286047000.5,N
1649407195.1,286047004.3,N
1649407215.9,286047003.8,N
1649407235.7,286047005.9,N
1649407255.5,286047009.2,N
1649407275.4,286047008.3,N
1649407295.2,286047007.8,N
1649407315.0,286047007.9,N
1649407315.9,286047007.9,N
1649407335.8,286047009.0,N
1649407355.6,286047012.2,N
1649407375.5,286047012.3,N
1649407395.3,286047006.5,N
1649407415.1,286047007.2,N
1649407435.9,286047010.2,N
1649407455.7,286047010.1,N
1649407475.5,286047009.8,N
1649407495.4,286047013.8,N
1649407515.2,286047017.0,N
1649407535.1,286047017.9,N
1649407536.0,286047017.9,N
1649407555.8,286047020.4,Y
1649407575.6,286047014.9,P
1649407595.5,286047015.3,P
1649407615.3,286047012.2,N
1649407635.1,286047012.2,Y
1649407655.9,286047004.3,P
1649407675.7,286047000.0,N
1649407695.6,286047000.3,N
1649407715.4,286047004.3,N
1649407735.2,286047005.1,N
1649407755.1,286047003.4,N
1649407756.0,286047003.4,N
1649407775.8,286047004.3,N
1649407795.7,286047004.4,N
1649407815.5,286047000.0,N
1649407835.3,286046996.5,N
1649407855.2,286046996.8,N
1649407875.9,286046996.7,N
1649407895.7,286046998.9,N
1649407915.6,286046995.6,N
1649407935.4,286046993.3,N
1649407955.2,286046995.2,N
1649407975.1,286046996.2,N
1649407976.0,286046996.2,N
1649407995.8,286046995.8,N
1649408015.7,286046997.7,N
1649408035.5,286046998.0,N
1649408055.3,286046994.6,N
1649408075.2,286046992.5,N
1649408095.0,286046996.4,N
1649408095.9,286046996.4,N
1649408115.8,286046997.7,N
1649408135.6,286046993.8,N
1649408155.4,286046994.3,N
1649408175.3,286046993.4,N
1649408195.1,286046996.3,N
1649408215.8,286046993.5,N
1649408235.7,286046995.2,N
1649408255.5,286046995.1,N
1649408275.3,286046995.8,N
1649408295.2,286046996.8,N
1649408315.0,286046997.5,N
1649408315.9,286046997.5,N
1649408335.8,286046996.8,N
1649408355.6,286046994.3,Y
1649408375.4,286046993.3,P
1649408395.3,286046994.9,P
